Terminal Aerodrome Forecast
Issued by NWS Sioux Falls, SD

Home | Current Version | Previous Version | Text Only | Print | Product List | Glossary Off
Versions: 1 2 3 4 5 6 7 8 9 10 11 12 13 14 15 16 17

000
FTUS43 KFSD 161700 RRA
TAFFSD
TAF
KFSD 161749Z 1618/1718 29012G17KT P6SM OVC050
     FM161900 34021G32KT 6SM -RA BKN015 OVC025
      TEMPO 1619/1622 3SM -RASN
     FM162200 35021G28KT P6SM OVC020
     FM170300 35014G20KT P6SM OVC025
     FM170900 34009KT P6SM BKN012
     FM171400 35013KT P6SM SCT017=

USA.gov is the U.S. government's official web portal to all federal, state and local government web resources and services.